Tracking 20370 objects as of 20-Feb-2020
HD Live streaming from Space Station
objects crossing your sky now
Track the group of recently launched Starlink satellites

COSMOS 1814

Track COSMOS 1814 now!
10-day predictions
COSMOS 1814 is classified as:


NORAD ID: 17303
Int'l Code: 1987-006A
Perigee: 765.1 km
Apogee: 799.2 km
Inclination: 74.1 °
Period: 100.3 minutes
Semi major axis: 7153 km
RCS: 2.1989 m2 (large)
Launch date: January 21, 1987
Source: Commonwealth of Independent States (former USSR) (CIS)
Launch site: PLESETSK MISSILE AND SPACE COMPLEX (PKMTR)
aabbcc
Your satellite tracking list
Your tracking list is empty




NASA's NSSDC Master Catalog

Two Line Element Set (TLE):
1 17303U 87006A   20050.74144936 -.00000006  00000-0  68815-5 0  9990
2 17303  74.0571 167.6728 0023832 122.3018 238.0447 14.35006750731170
Source of the keplerian elements: AFSPC